| time (UTC) | temp F | wind direction | speed MPH | gust MPH | rain 1hr in | rain 24hr in | rain mn in | humidity % | barometer mb |
| 20260906161529 | 55 | 212 | 1.0 | 2.0 | 0.00 | 0.52 | 0.52 | 91 | 1017.7 |
| 20260906160024 | 54 | 155 | 0.0 | 3.0 | 0.00 | 0.52 | 0.52 | 91 | 1017.9 |
| 20260906154524 | 53 | 126 | 5.0 | 7.0 | 0.00 | 0.52 | 0.52 | 93 | 1018.1 |
| 20260906153019 | 53 | 130 | 2.0 | 3.0 | 0.00 | 0.52 | 0.52 | 93 | 1018.3 |
| 20260906151518 | 53 | 200 | 4.0 | 6.0 | 0.00 | 0.52 | 0.52 | 93 | 1018.3 |
| 20260906150016 | 52 | 246 | 2.0 | 3.0 | 0.00 | 0.52 | 0.52 | 93 | 1017.7 |
| 20260906144515 | 52 | 229 | 2.0 | 4.0 | 0.00 | 0.52 | 0.52 | 92 | 1017.5 |
| 20260906143031 | 53 | 245 | 3.0 | 6.0 | 0.00 | 0.52 | 0.52 | 93 | 1017.4 |
| 20260906141531 | 52 | 118 | 3.0 | 4.0 | 0.00 | 0.52 | 0.52 | 94 | 1017.4 |
| 20260906140028 | 51 | 205 | 1.0 | 2.0 | 0.00 | 0.52 | 0.52 | 94 | 1018.1 |
| 20260906134528 | 51 | 169 | 0.0 | 3.0 | 0.00 | 0.52 | 0.52 | 94 | 1017.7 |
| 20260906133023 | 51 | 156 | 0.0 | 4.0 | 0.00 | 0.52 | 0.52 | 93 | 1017.5 |
| 20260906131523 | 51 | 142 | 2.0 | 4.0 | 0.00 | 0.52 | 0.52 | 93 | 1017.5 |
| 20260906130024 | 51 | 245 | 0.0 | 2.0 | 0.00 | 0.52 | 0.52 | 92 | 1017.2 |
| 20260906124533 | 51 | 259 | 1.0 | 3.0 | 0.00 | 0.52 | 0.52 | 92 | 1016.9 |
| 20260906123033 | 52 | 234 | 2.0 | 8.0 | 0.00 | 0.52 | 0.52 | 92 | 1017.1 |
| 20260906121531 | 52 | 103 | 2.0 | 3.0 | 0.01 | 0.52 | 0.52 | 92 | 1017.4 |
| 20260906120028 | 52 | 150 | 2.0 | 4.0 | 0.01 | 0.52 | 0.52 | 93 | 1017.9 |
| 20260906114530 | 52 | 205 | 1.0 | 3.0 | 0.01 | 0.52 | 0.52 | 93 | 1018.2 |
| 20260906113024 | 52 | 92 | 4.0 | 6.0 | 0.01 | 0.52 | 0.52 | 92 | 1017.6 |
| 20260906111525 | 52 | 22 | 2.0 | 11.0 | 0.01 | 0.52 | 0.52 | 92 | 1017.7 |
| 20260906110018 | 52 | 350 | 1.0 | 5.0 | 0.01 | 0.52 | 0.52 | 91 | 1017.6 |
| 20260906104534 | 53 | 191 | 2.0 | 11.0 | 0.02 | 0.52 | 0.52 | 91 | 1017.9 |
| 20260906103032 | 53 | 192 | 5.0 | 8.0 | 0.05 | 0.54 | 0.52 | 90 | 1018.6 |
| 20260906101531 | 54 | 236 | 3.0 | 10.0 | 0.05 | 0.54 | 0.51 | 87 | 1019.3 |
| 20260906100031 | 53 | 121 | 13.0 | 18.0 | 0.05 | 0.56 | 0.51 | 87 | 1018.7 |
| 20260906094531 | 53 | 104 | 8.0 | 11.0 | 0.05 | 0.58 | 0.50 | 90 | 1019.5 |
| 20260906093036 | 53 | 114 | 10.0 | 12.0 | 0.07 | 0.58 | 0.47 | 91 | 1020.4 |
| 20260906091528 | 52 | 321 | 1.0 | 8.0 | 0.09 | 0.58 | 0.46 | 91 | 1020.3 |
| 20260906090033 | 53 | 250 | 5.0 | 7.0 | 0.10 | 0.58 | 0.46 | 90 | 1019.6 |
| 20260906084538 | 53 | 144 | 0.0 | 4.0 | 0.10 | 0.58 | 0.45 | 89 | 1018.8 |
| 20260906083036 | 53 | 163 | 1.0 | 7.0 | 0.08 | 0.54 | 0.40 | 88 | 1019.6 |
| 20260906081535 | 53 | 55 | 1.0 | 8.0 | 0.37 | 0.52 | 0.37 | 86 | 1019.3 |
| 20260906080042 | 52 | 109 | 5.0 | 7.0 | 0.36 | 0.52 | 0.36 | 84 | 1019.9 |
| 20260906074532 | 53 | 249 | 1.0 | 10.0 | 0.35 | 0.54 | 0.35 | 84 | 1019.8 |
| 20260906073006 | 54 | 69 | 6.0 | 27.0 | 0.32 | 0.52 | 0.32 | 80 | 1019.3 |
| 20260906071504 | 55 | 178 | 12.0 | 20.0 | 0.00 | 0.21 | 0.00 | 85 | 1019.8 |
| 20260906070003 | 55 | 240 | 7.0 | 9.0 | 0.00 | 0.21 | 0.00 | 83 | 1018.5 |
| 20260906064531 | 55 | 142 | 4.0 | 8.0 | 0.00 | 0.21 | 0.00 | 81 | 1017.3 |
| 20260906063020 | 55 | 167 | 0.0 | 7.0 | 0.00 | 0.22 | 0.00 | 82 | 1017.7 |
| 20260906061518 | 55 | 130 | 7.0 | 9.0 | 0.00 | 0.22 | 0.00 | 82 | 1017.8 |
| 20260906060021 | 55 | 115 | 6.0 | 9.0 | 0.00 | 0.22 | 0.00 | 81 | 1018.0 |
| 20260906054512 | 56 | 190 | 0.0 | 2.0 | 0.00 | 0.22 | 0.22 | 82 | 1018.3 |
| 20260906053034 | 56 | 128 | 4.0 | 7.0 | 0.00 | 0.22 | 0.22 | 81 | 1018.3 |
| 20260906051508 | 58 | 132 | 3.0 | 5.0 | 0.00 | 0.22 | 0.22 | 78 | 1018.4 |
| 20260906050033 | 58 | 71 | 0.0 | 2.0 | 0.00 | 0.22 | 0.22 | 77 | 1018.4 |
| 20260906044526 | 58 | 169 | 0.0 | 2.0 | 0.00 | 0.22 | 0.22 | 77 | 1018.5 |
| 20260906043023 | 58 | 234 | 0.0 | 2.0 | 0.00 | 0.22 | 0.22 | 77 | 1018.3 |
| 20260906041523 | 58 | 274 | 1.0 | 3.0 | 0.00 | 0.22 | 0.22 | 79 | 1018.2 |
| 20260906040017 | 59 | 229 | 1.0 | 3.0 | 0.00 | 0.22 | 0.22 | 77 | 1018.2 |
| 20260906034521 | 61 | 150 | 0.0 | 4.0 | 0.00 | 0.22 | 0.22 | 72 | 1018.1 |
| 20260906033017 | 61 | 121 | 3.0 | 7.0 | 0.00 | 0.22 | 0.22 | 73 | 1018.0 |
| 20260906031509 | 61 | 123 | 5.0 | 7.0 | 0.00 | 0.22 | 0.22 | 72 | 1017.9 |
| 20260906030029 | 62 | 85 | 4.0 | 4.0 | 0.00 | 0.22 | 0.22 | 70 | 1017.5 |
| 20260906024532 | 62 | 86 | 3.0 | 4.0 | 0.00 | 0.23 | 0.22 | 70 | 1017.5 |
| 20260906023027 | 63 | 132 | 2.0 | 2.0 | 0.00 | 0.23 | 0.22 | 69 | 1017.5 |
| 20260906021527 | 64 | 69 | 0.0 | 2.0 | 0.00 | 0.23 | 0.22 | 67 | 1017.2 |
| 20260906020023 | 64 | 98 | 1.0 | 2.0 | 0.00 | 0.25 | 0.22 | 67 | 1017.0 |
| 20260906014523 | 66 | 281 | 0.0 | 1.0 | 0.00 | 0.27 | 0.22 | 62 | 1017.2 |
| 20260906013015 | 66 | 322 | 0.0 | 3.0 | 0.00 | 0.30 | 0.22 | 61 | 1017.1 |
| 20260906011513 | 66 | 311 | 3.0 | 4.0 | 0.00 | 0.31 | 0.22 | 59 | 1017.0 |
| 20260906010034 | 67 | 318 | 3.0 | 4.0 | 0.00 | 0.36 | 0.22 | 57 | 1016.9 |
| 20260906004532 | 69 | 313 | 3.0 | 4.0 | 0.00 | 0.40 | 0.22 | 55 | 1016.8 |
| 20260906003030 | 69 | 59 | 2.0 | 4.0 | 0.00 | 0.40 | 0.22 | 54 | 1016.8 |
| 20260906001529 | 69 | 17 | 1.0 | 4.0 | 0.00 | 0.40 | 0.22 | 52 | 1016.7 |
| 20260906000028 | 69 | 35 | 3.0 | 5.0 | 0.00 | 0.40 | 0.22 | 54 | 1016.5 |
| 20260905234522 | 69 | 19 | 3.0 | 6.0 | 0.00 | 0.40 | 0.22 | 54 | 1016.6 |
| 20260905233020 | 68 | 350 | 3.0 | 7.0 | 0.00 | 0.40 | 0.22 | 58 | 1016.6 |
| 20260905231518 | 68 | 360 | 3.0 | 9.0 | 0.00 | 0.40 | 0.22 | 58 | 1016.6 |
| 20260905230034 | 68 | 5 | 3.0 | 8.0 | 0.00 | 0.40 | 0.22 | 58 | 1016.6 |
| 20260905224539 | 68 | 360 | 5.0 | 8.0 | 0.00 | 0.40 | 0.22 | 62 | 1016.4 |
| 20260905223032 | 67 | 10 | 4.0 | 9.0 | 0.00 | 0.40 | 0.22 | 59 | 1017.0 |
| 20260905221537 | 68 | 9 | 5.0 | 11.0 | 0.00 | 0.40 | 0.22 | 57 | 1016.8 |
| 20260905220033 | 68 | 331 | 6.0 | 11.0 | 0.00 | 0.40 | 0.22 | 57 | 1017.2 |
| 20260905214529 | 67 | 9 | 4.0 | 8.0 | 0.00 | 0.40 | 0.22 | 57 | 1017.3 |
| 20260905213033 | 67 | 26 | 4.0 | 10.0 | 0.00 | 0.40 | 0.22 | 58 | 1017.7 |
| 20260905211536 | 66 | 310 | 4.0 | 8.0 | 0.00 | 0.40 | 0.22 | 61 | 1017.7 |
| 20260905210034 | 66 | 335 | 3.0 | 9.0 | 0.00 | 0.40 | 0.22 | 61 | 1017.9 |
| 20260905204533 | 66 | 28 | 2.0 | 8.0 | 0.00 | 0.40 | 0.22 | 57 | 1017.8 |
| 20260905203032 | 65 | 347 | 3.0 | 8.0 | 0.00 | 0.40 | 0.22 | 62 | 1018.1 |
| 20260905201534 | 64 | 31 | 4.0 | 8.0 | 0.00 | 0.40 | 0.22 | 65 | 1018.1 |
| 20260905200033 | 64 | 63 | 5.0 | 10.0 | 0.00 | 0.40 | 0.22 | 66 | 1018.4 |
| 20260905194530 | 63 | 38 | 4.0 | 8.0 | 0.00 | 0.40 | 0.22 | 68 | 1018.5 |
| 20260905193009 | 62 | 67 | 1.0 | 7.0 | 0.00 | 0.40 | 0.22 | 69 | 1018.6 |
| 20260905191504 | 62 | 59 | 2.0 | 5.0 | 0.00 | 0.40 | 0.22 | 70 | 1018.8 |
| 20260905190016 | 61 | 12 | 1.0 | 5.0 | 0.00 | 0.40 | 0.22 | 73 | 1019.1 |
| 20260905184521 | 60 | 59 | 3.0 | 5.0 | 0.00 | 0.40 | 0.22 | 75 | 1019.2 |
| 20260905183017 | 59 | 13 | 3.0 | 7.0 | 0.00 | 0.40 | 0.22 | 78 | 1019.4 |
| 20260905181515 | 59 | 38 | 5.0 | 8.0 | 0.00 | 0.40 | 0.22 | 80 | 1019.5 |
| 20260905180013 | 58 | 313 | 3.0 | 8.0 | 0.00 | 0.40 | 0.22 | 81 | 1019.6 |
| 20260905174513 | 58 | 296 | 2.0 | 5.0 | 0.00 | 0.40 | 0.22 | 80 | 1019.8 |
| 20260905173018 | 56 | 348 | 2.0 | 4.0 | 0.00 | 0.40 | 0.22 | 1020.0 | |
| 20260905171503 | 56 | 360 | 1.0 | 4.0 | 0.00 | 0.40 | 0.22 | 83 | 1020.0 |
| 20260905170020 | 56 | 344 | 2.0 | 4.0 | 0.00 | 0.40 | 0.22 | 87 | 1020.1 |
| 20260905164519 | 55 | 265 | 2.0 | 4.0 | 0.00 | 0.40 | 0.22 | 87 | 1020.1 |
| 20260905163025 | 54 | 251 | 2.0 | 3.0 | 0.00 | 0.40 | 0.22 | 90 | 1020.1 |